1496610001.15,22365,18.75,73880.3,4.97,4.31,4.31,0,*77
1496610002.33,22366,18.69,73876.0,4.99,4.33,4.27,0,*7F
1496610003.54,22367,18.75,73880.8,4.99,4.31,4.33,0,*79
1496610004.73,22368,18.75,73880.0,4.99,4.33,4.33,0,*74
1496610005.94,22369,18.75,73882.8,5.01,4.37,4.37,0,*75
1496610007.15,22370,18.75,73880.8,4.97,4.37,4.37,0,*73
1496610008.33,22371,18.69,73874.8,4.99,4.41,4.41,0,*7C
1496610009.52,22372,18.75,73880.0,4.99,4.41,4.33,0,*7A
1496610010.7,22373,18.75,73882.5,4.99,4.33,4.41,0,*7B
1496610011.91,22374,18.75,73876.5,4.99,4.33,4.31,0,*7B
1496610013.13,22375,18.75,73880.0,4.99,4.31,4.33,0,*7A
1496610014.33,22376,18.75,73878.3,4.97,4.27,4.27,0,*75
1496610015.53,22377,18.75,73878.5,5.01,4.33,4.33,0,*7A
1496610016.71,22378,18.75,73880.0,4.99,4.27,4.27,0,*75
1496610017.95,22379,18.75,73884.5,4.99,4.31,4.31,0,*74
1496610019.19,22380,18.75,73876.0,4.99,4.31,4.31,0,*72
1496610020.37,22381,18.75,73878.8,5.03,4.33,4.33,0,*71
1496610021.57,22382,18.75,73878.3,4.97,4.27,4.27,0,*7E
1496610022.81,22383,18.75,73876.0,4.99,4.31,4.31,0,*71
1496610024.05,22384,18.75,73880.0,4.99,4.31,4.31,0,*76
1496610025.28,22385,18.75,73878.3,4.99,4.31,4.31,0,*77
1496610026.49,22386,18.75,73874.0,4.99,4.33,4.31,0,*76
1496610027.73,22387,18.75,73880.3,4.99,4.31,4.31,0,*75
1496610028.97,22388,18.69,73878.3,4.97,4.31,4.37,0,*72
1496610030.15,22389,18.75,73882.0,4.99,4.33,4.33,0,*7B
1496610031.39,22390,18.69,73878.3,4.99,4.31,4.31,0,*73
1496610032.6,22391,18.75,73876.3,4.99,4.31,4.33,0,*70
1496610033.84,22392,18.75,73876.3,4.99,4.31,4.31,0,*71
1496610035.04,22393,18.75,73872.3,4.97,4.27,4.27,0,*7E
1496610036.25,22394,18.75,73878.5,5.01,4.33,4.37,0,*73
1496610037.46,22395,18.69,73874.0,4.99,4.33,4.31,0,*74
1496610038.69,22396,18.75,73876.3,4.97,4.27,4.31,0,*7C
1496610039.9,22397,18.75,73878.8,5.01,4.37,4.33,0,*70
1496610041.1,22398,18.75,73878.5,5.01,4.45,4.37,0,*7E
1496610042.31,22399,18.75,73878.8,5.01,4.37,4.37,0,*7A
1496610043.53,22400,18.69,73876.5,5.01,4.37,4.37,0,*7D
1496610044.73,22401,18.75,73876.5,5.01,4.33,4.33,0,*7C
1496610045.92,22402,18.75,73878.0,5.03,4.33,4.33,0,*7D
1496610047.12,22403,18.75,73878.5,5.01,4.33,4.33,0,*7E
1496610048.33,22404,18.75,73878.5,5.01,4.37,4.33,0,*7D
1496610049.56,22405,18.75,73878.3,4.97,4.31,4.27,0,*71
1496610050.77,22406,18.75,73878.5,5.01,4.33,4.33,0,*7B
1496610051.97,22407,18.75,73878.0,5.01,4.33,4.33,0,*7A
1496610053.18,22408,18.75,73882.3,5.01,4.37,4.37,0,*75
1496610054.37,22409,18.75,73876.0,5.03,4.37,4.37,0,*76
1496610055.58,22410,18.75,73880.0,5.01,4.33,4.33,0,*7C
1496610056.79,22411,18.75,73878.3,5.01,4.33,4.37,0,*79
1496610058.02,22412,18.75,73882.5,4.99,4.31,4.31,0,*7E
1496610059.22,22413,18.75,73882.3,4.97,4.27,4.27,0,*71
1496610060.41,22414,18.75,73882.0,5.03,4.33,4.33,0,*7A
1496610061.62,22415,18.75,73880.0,5.01,4.37,4.37,0,*79
1496610062.83,22416,18.75,73876.8,5.01,4.37,4.37,0,*7A
1496610064.09,22417,18.75,73880.5,4.97,4.31,4.31,0,*75
1496610065.32,22418,18.75,73880.5,4.99,4.31,4.31,0,*74
1496610066.51,22419,18.75,73876.5,4.99,4.33,4.33,0,*75
1496610067.7,22420,18.75,73878.8,4.99,4.33,4.33,0,*7F
1496610068.9,22421,18.69,73876.3,5.01,4.33,4.45,0,*7F
1496610070.1,22422,18.75,73880.8,5.01,4.45,4.45,0,*7D
1496610071.3,22423,18.75,73880.3,5.01,4.45,4.45,0,*7C
1496610072.5,22424,18.75,73880.8,5.01,4.37,4.49,0,*72
1496610073.71,22425,18.75,73880.8,5.01,4.37,4.45,0,*7F
1496610074.92,22426,18.69,73878.0,5.01,4.37,4.37,0,*79
1496610076.11,22427,18.75,73886.0,5.03,4.37,4.45,0,*7F
1496610077.31,22428,18.75,73880.5,5.01,4.33,4.37,0,*73
1496610078.52,22429,18.75,73882.0,5.01,4.37,4.33,0,*72
1496610079.73,22430,18.75,73876.0,5.01,4.33,4.37,0,*7A
1496610080.92,22431,18.75,73874.5,5.03,4.37,4.33,0,*79
1496610082.12,22432,18.75,73876.3,5.01,4.33,4.33,0,*7C
1496610083.33,22433,18.75,73870.8,5.01,4.33,4.37,0,*79
1496610084.54,22434,18.75,73874.3,5.01,4.33,4.33,0,*7A
1496610085.73,22435,18.75,73878.5,5.03,4.37,4.37,0,*79
1496610086.94,22436,18.75,73878.8,5.01,4.37,4.37,0,*78
1496610088.15,22437,18.75,73884.0,5.01,4.37,4.37,0,*79
1496610089.36,22438,18.75,73880.8,5.01,4.37,4.33,0,*72
1496610090.57,22439,18.75,73882.5,5.01,4.37,4.37,0,*77
1496610091.78,22440,18.69,73878.8,5.01,4.33,4.37,0,*7D
1496610092.99,22441,18.75,73878.8,5.01,4.33,4.33,0,*78
1496610094.19,22442,18.75,73876.8,5.01,4.33,4.33,0,*7B
1496610095.38,22443,18.75,73876.8,5.03,4.33,4.33,0,*78
1496610096.56,22444,18.75,73876.0,5.03,4.37,4.37,0,*7F
1496610097.77,22445,18.69,73872.3,5.01,4.33,4.33,0,*7C
1496610098.98,22446,18.69,73878.8,5.01,4.33,4.33,0,*7F
1496610100.16,22447,18.75,73876.0,5.03,4.33,4.33,0,*7C
1496610101.37,22448,18.75,73868.8,5.01,4.37,4.33,0,*75
1496610102.58,22449,18.69,73876.5,5.01,4.37,4.33,0,*74
1496610103.79,22450,18.75,73876.0,5.01,4.33,4.33,0,*78
1496610105.0,22451,18.75,73872.5,5.01,4.33,4.37,0,*7D
1496610106.2,22452,18.69,73872.3,5.01,4.33,4.37,0,*7E
1496610107.39,22453,18.75,73874.5,5.03,4.33,4.33,0,*79
1496610108.59,22454,18.75,73878.3,5.01,4.33,4.33,0,*7C
1496610109.8,22455,18.75,73876.3,5.01,4.33,4.33,0,*7D
1496610110.98,22456,18.75,73878.0,5.03,4.33,4.33,0,*7C
1496610112.19,22457,18.75,73880.5,5.01,4.33,4.33,0,*7F
1496610113.4,22458,18.75,73882.3,5.01,4.33,4.37,0,*74
1496610114.61,22459,18.69,73882.0,5.01,4.37,4.37,0,*71
1496610115.82,22460,18.69,73886.0,5.01,4.37,4.37,0,*7B
1496610117.0,22461,18.69,73878.3,5.03,4.33,4.33,0,*78
1496610118.21,22462,18.69,73872.8,5.01,4.33,4.33,0,*79
1496610119.42,22463,18.69,73868.5,5.01,4.33,4.33,0,*78
1496610120.62,22464,18.75,73868.8,5.01,4.33,4.33,0,*7F
1496610121.83,22465,18.69,73870.5,5.01,4.33,4.33,0,*7E
1496610123.04,22466,18.75,73876.8,5.01,4.33,4.33,0,*7D
1496610124.24,22467,18.75,73878.3,5.01,4.33,4.33,0,*7C
1496610125.45,22468,18.69,73876.5,5.01,4.33,4.37,0,*77
1496610126.63,22469,18.69,73874.0,5.03,4.33,4.33,0,*70
1496610127.84,22470,18.75,73874.8,5.01,4.33,4.33,0,*7A
1496610129.03,22471,18.69,73876.8,5.03,4.33,4.37,0,*7D
1496610130.21,22472,18.75,73882.5,5.03,4.33,4.33,0,*7A
1496610131.42,22473,18.75,73882.0,5.01,4.37,4.37,0,*79
1496610132.63,22474,18.69,73880.3,5.01,4.33,4.37,0,*7A
1496610133.82,22475,18.69,73880.3,5.03,4.37,4.33,0,*79
1496610135.0,22476,18.75,73878.5,5.03,4.37,4.37,0,*7E
1496610136.21,22477,18.75,73882.3,5.01,4.33,4.37,0,*79
1496610137.4,22478,18.69,73874.8,5.07,4.37,4.41,0,*75
1496610138.61,22479,18.75,73876.0,5.01,4.37,4.37,0,*73
1496610139.82,22480,18.75,73876.8,5.01,4.33,4.33,0,*75
1496610141.0,22481,18.75,73876.8,5.03,4.37,4.33,0,*72
1496610142.19,22482,18.75,73884.5,5.03,4.33,4.37,0,*71
1496610143.37,22483,18.75,73882.8,5.03,4.33,4.33,0,*74
1496610144.58,22484,18.69,73876.8,5.01,4.33,4.33,0,*71
1496610145.76,22485,18.75,73876.5,5.03,4.33,4.33,0,*72
1496610146.97,22486,18.75,73878.0,5.01,4.33,4.37,0,*77
1496610148.18,22487,18.69,73872.5,5.01,4.37,4.37,0,*72
1496610149.37,22488,18.75,73878.3,5.03,4.37,4.37,0,*7F
1496610150.55,22489,18.75,73876.5,5.03,4.33,4.37,0,*7A
1496610151.76,22490,18.75,73882.5,5.01,4.37,4.33,0,*70
1496610152.97,22491,18.75,73874.5,5.01,4.33,4.33,0,*75
1496610154.18,22492,18.69,73874.0,5.01,4.33,4.33,0,*76
1496610155.38,22493,18.75,73872.0,5.01,4.33,4.33,0,*77
1496610156.59,22494,18.75,73872.5,5.01,4.33,4.33,0,*70
1496610157.8,22495,18.75,73872.3,5.01,4.37,4.37,0,*71
1496610158.99,22496,18.69,73872.3,5.03,4.37,4.37,0,*70
1496610160.19,22497,18.75,73874.0,5.01,4.33,4.33,0,*73
1496610161.4,22498,18.75,73876.8,5.01,4.33,4.33,0,*7C
1496610162.61,22499,18.69,73870.8,5.01,4.37,4.33,0,*79
1496610163.79,22500,18.75,73874.3,5.03,4.37,4.45,0,*7B
1496610165.0,22501,18.75,73874.5,5.01,4.33,4.37,0,*79
1496610166.18,22502,18.69,73876.0,5.07,4.41,4.37,0,*79
1496610167.37,22503,18.75,73876.5,5.03,4.33,4.33,0,*7D
1496610168.55,22504,18.75,73872.8,5.03,4.33,4.33,0,*7A
1496610169.76,22505,18.75,73874.5,5.01,4.33,4.33,0,*79
1496610170.94,22506,18.69,73872.3,5.03,4.33,4.33,0,*78
1496610172.17,22507,18.75,73872.0,5.01,4.31,4.33,0,*79
1496610173.41,22508,18.75,73872.8,5.01,4.31,4.37,0,*72
1496610174.62,22509,18.75,73874.3,5.03,4.31,4.33,0,*75
1496610175.81,22510,18.75,73874.3,5.03,4.37,4.37,0,*7F
1496610177.02,22511,18.69,73874.5,5.01,4.37,4.37,0,*7C
1496610178.2,22512,18.69,73868.5,5.03,4.33,4.33,0,*7D
1496610179.39,22513,18.69,73868.5,5.03,4.33,4.33,0,*7C
1496610180.57,22514,18.75,73876.3,5.03,4.33,4.37,0,*7F
1496610181.78,22515,18.75,73874.8,5.01,4.33,4.37,0,*7C
1496610183.01,22516,18.75,73870.0,5.01,4.33,4.31,0,*79
1496610184.24,22517,18.75,73868.8,5.01,4.33,4.31,0,*78
1496610185.45,22518,18.75,73872.5,5.03,4.33,4.31,0,*75
1496610186.63,22519,18.75,73876.0,5.03,4.33,4.33,0,*76
1496610187.82,22520,18.75,73876.8,5.03,4.33,4.37,0,*78
1496610189.0,22521,18.75,73878.0,5.03,4.33,4.37,0,*79
1496610190.21,22522,18.75,73870.8,5.01,4.33,4.33,0,*7C
1496610191.42,22523,18.69,73866.8,5.03,4.31,4.33,0,*7D
1496610192.63,22524,18.75,73868.0,5.03,4.31,4.33,0,*7A
1496610193.84,22525,18.75,73872.0,5.03,4.31,4.33,0,*7B
1496610195.05,22526,18.75,73874.8,5.03,4.31,4.33,0,*78
1496610196.28,22527,18.75,73872.5,5.01,4.31,4.33,0,*7B
1496610197.47,22528,18.75,73874.3,5.03,4.33,4.33,0,*74
1496610198.65,22529,18.75,73874.3,5.03,4.33,4.33,0,*75
1496610199.88,22530,18.69,73874.3,5.01,4.33,4.31,0,*7D
1496610201.12,22531,18.69,73874.8,5.03,4.31,4.31,0,*7C
1496610202.37,22532,18.75,73878.0,5.01,4.31,4.31,0,*7D
1496610203.58,22533,18.75,73876.5,5.01,4.33,4.37,0,*78
1496610204.77,22534,18.75,73874.0,5.03,4.33,4.37,0,*7D
1496610206.0,22535,18.75,73876.0,5.01,4.31,4.33,0,*78
1496610207.21,22536,18.75,73876.0,5.01,4.33,4.37,0,*7D
1496610208.39,22537,18.69,73874.0,5.03,4.33,4.37,0,*7E
1496610209.62,22538,18.75,73880.0,5.01,4.33,4.31,0,*75
1496610210.88,22539,18.75,73878.0,5.01,4.31,4.31,0,*76
1496610212.14,22540,18.75,73874.0,5.01,4.31,4.31,0,*78
1496610213.39,22541,18.75,73874.5,5.01,4.31,4.31,0,*79
1496610214.6,22542,18.69,73876.3,5.03,4.31,4.33,0,*7A
1496610215.84,22543,18.75,73882.0,5.01,4.31,4.33,0,*79
1496610217.02,22544,18.75,73880.0,5.07,4.41,4.37,0,*7B
1496610218.23,22545,18.75,73880.0,5.01,4.33,4.33,0,*7D
1496610219.41,22546,18.69,73876.8,5.07,4.33,4.37,0,*7C
1496610220.62,22547,18.75,73880.5,5.01,4.37,4.33,0,*7B
1496610221.83,22548,18.75,73882.3,5.01,4.37,4.37,0,*70
1496610223.04,22549,18.69,73880.3,5.01,4.37,4.37,0,*71
1496610224.25,22550,18.69,73882.0,5.01,4.45,4.33,0,*78
1496610225.46,22551,18.69,73880.5,5.01,4.37,4.37,0,*78
1496610226.67,22552,18.75,73884.8,5.01,4.37,4.33,0,*7F
1496610227.88,22553,18.75,73876.5,5.03,4.33,4.31,0,*7A
1496610229.11,22554,18.75,73872.3,5.01,4.33,4.31,0,*7F
1496610230.36,22555,18.75,73876.8,5.01,4.31,4.31,0,*7C
1496610231.6,22556,18.75,73876.8,5.03,4.31,4.31,0,*7D
1496610232.86,22557,18.75,73872.3,5.01,4.31,4.31,0,*7E
1496610234.08,22558,18.75,73876.8,5.01,4.23,4.31,0,*72
1496610235.31,22559,18.75,73880.3,5.01,4.31,4.23,0,*73
1496610236.57,22560,18.75,73878.0,5.01,4.31,4.31,0,*7A
1496610237.83,22561,18.75,73880.3,5.01,4.31,4.31,0,*7B
1496610239.06,22562,18.75,73882.0,5.01,4.33,4.31,0,*7A
1496610240.26,22563,18.69,73876.8,5.01,4.33,4.33,0,*79
1496610241.47,22564,18.75,73882.5,5.01,4.33,4.33,0,*7E
1496610242.68,22565,18.75,73880.8,5.01,4.33,4.33,0,*7F
1496610243.88,22566,18.75,73882.0,5.01,4.33,4.33,0,*7C
1496610245.12,22567,18.75,73882.3,5.01,4.33,4.31,0,*7F
1496610246.37,22568,18.69,73882.3,5.01,4.31,4.31,0,*72
1496610247.58,22569,18.75,73878.8,5.01,4.33,4.33,0,*73
1496610248.81,22570,18.69,73872.3,5.01,4.33,4.31,0,*79
1496610250.04,22571,18.75,73872.8,5.01,4.33,4.31,0,*78
1496610251.27,22572,18.69,73870.5,5.03,4.31,4.31,0,*7B
1496610252.5,22573,18.69,73870.3,5.01,4.31,4.23,0,*7B
1496610253.7,22574,18.75,73868.0,5.01,4.23,4.23,0,*7F
1496610254.9,22575,18.75,73866.5,5.01,4.23,4.23,0,*7E
1496610256.13,22576,18.75,73864.0,5.01,4.31,4.23,0,*7E
1496610257.33,22577,18.75,73866.5,5.01,4.23,4.23,0,*7C
1496610258.59,22578,18.69,73866.0,5.01,4.31,4.31,0,*73
1496610259.77,22579,18.69,73870.3,4.99,4.27,4.27,0,*72
1496610261.0,22580,18.75,73870.0,5.01,4.31,4.23,0,*77
1496610262.23,22581,18.69,73866.8,5.01,4.23,4.31,0,*76
1496610263.43,22582,18.75,73878.3,5.01,4.23,4.23,0,*76
1496610264.66,22583,18.75,73878.3,5.01,4.23,4.31,0,*74
1496610265.83,22584,18.69,73876.5,4.99,4.19,4.27,0,*7D
1496610267.01,22585,18.75,73878.0,4.99,4.27,4.27,0,*71
1496610268.22,22586,18.69,73876.8,4.99,4.27,4.31,0,*75
1496610269.43,22587,18.69,73874.8,4.99,4.27,4.31,0,*74
1496610270.64,22588,18.75,73876.3,4.99,4.27,4.31,0,*7B
1496610271.85,22589,18.75,73878.8,5.01,4.33,4.33,0,*7D
1496610273.06,22590,18.69,73876.0,5.01,4.33,4.33,0,*75
1496610274.32,22591,18.69,73874.0,5.01,4.31,4.31,0,*74
1496610275.5,22592,18.69,73878.5,4.99,4.27,4.27,0,*77
1496610276.67,22593,18.69,73882.0,4.99,4.27,4.27,0,*76
1496610277.85,22594,18.69,73878.3,4.99,4.27,4.27,0,*71
1496610279.03,22595,18.75,73880.5,4.99,4.27,4.27,0,*70
1496610280.29,22596,18.75,73872.8,5.01,4.31,4.31,0,*73
1496610281.55,22597,18.69,73870.3,5.01,4.31,4.31,0,*72
1496610282.8,22598,18.69,73872.8,5.01,4.31,4.31,0,*7D
1496610284.01,22599,18.69,73878.3,5.01,4.23,4.23,0,*7C
1496610285.24,22600,18.69,73880.5,5.01,4.31,4.33,0,*7D
1496610286.45,22601,18.69,73876.5,5.01,4.37,4.33,0,*7A
1496610287.66,22602,18.75,73880.5,5.01,4.33,4.33,0,*7D
1496610288.86,22603,18.75,73876.3,5.01,4.33,4.33,0,*7C
1496610290.05,22604,18.69,73876.5,5.03,4.33,4.37,0,*7D
1496610291.26,22605,18.75,73880.8,5.01,4.33,4.37,0,*7E
1496610292.46,22606,18.75,73878.3,5.01,4.33,4.33,0,*79
1496610293.67,22607,18.75,73870.8,5.01,4.33,4.33,0,*78
1496610294.87,22608,18.69,73868.0,5.03,4.23,4.31,0,*76
1496610296.13,22609,18.75,73880.0,5.01,4.31,4.31,0,*76
1496610297.37,22610,18.69,73878.3,5.01,4.31,4.37,0,*78
1496610298.58,22611,18.75,73882.3,5.01,4.37,4.33,0,*7B
1496610299.78,22612,18.69,73874.0,5.01,4.33,4.33,0,*7C
1496610300.99,22613,18.69,73878.0,5.01,4.33,4.33,0,*7D
1496610302.22,22614,18.69,73876.8,5.01,4.31,4.33,0,*78
1496610303.46,22615,18.69,73876.3,5.01,4.31,4.33,0,*79
1496610304.69,22616,18.75,73872.0,5.01,4.31,4.33,0,*7A
1496610305.93,22617,18.75,73872.8,4.99,4.31,4.31,0,*79
1496610307.14,22618,18.69,73868.3,4.99,4.31,4.33,0,*74
1496610308.35,22619,18.75,73872.5,5.01,4.33,4.33,0,*77
1496610309.55,22620,18.69,73872.0,5.01,4.33,4.23,0,*7C
1496610310.78,22621,18.69,73872.8,5.01,4.33,4.31,0,*7E
1496610312.01,22622,18.75,73868.0,5.01,4.33,4.31,0,*7D
1496610313.22,22623,18.69,73868.5,5.01,4.33,4.33,0,*7E
1496610314.45,22624,18.69,73868.5,5.01,4.33,4.31,0,*7B
1496610315.66,22625,18.69,73868.3,5.01,4.37,4.33,0,*7C
1496610316.84,22626,18.75,73870.0,5.03,4.33,4.33,0,*79
1496610318.05,22627,18.75,73870.8,5.01,4.37,4.33,0,*7E
1496610319.26,22628,18.69,73864.5,5.01,4.33,4.33,0,*75
1496610320.47,22629,18.69,73860.0,5.03,4.33,4.31,0,*74
1496610321.7,22630,18.75,73864.3,5.01,4.33,4.31,0,*7E
1496610322.93,22631,18.75,73870.0,5.01,4.33,4.31,0,*7F
1496610324.14,22632,18.69,73868.0,4.99,4.33,4.31,0,*7C
1496610325.37,22633,18.69,73870.5,4.99,4.31,4.31,0,*7F
1496610326.58,22634,18.69,73870.5,5.01,4.33,4.33,0,*78
1496610327.79,22635,18.69,73868.8,5.01,4.37,4.33,0,*7D
1496610329.0,22636,18.69,73870.5,5.01,4.37,4.37,0,*7A
1496610330.19,22637,18.69,73870.8,5.03,4.33,4.37,0,*7D
1496610331.4,22638,18.69,73870.8,5.01,4.37,4.37,0,*74
1496610332.61,22639,18.69,73868.8,5.01,4.33,4.37,0,*71
1496610333.81,22640,18.69,73870.5,5.01,4.33,4.37,0,*7F
1496610335.02,22641,18.69,73868.8,5.01,4.33,4.37,0,*7E
1496610336.21,22642,18.69,73874.3,5.03,4.33,4.33,0,*7B
1496610337.41,22643,18.69,73872.0,5.01,4.33,4.33,0,*78
1496610338.62,22644,18.69,73870.8,5.01,4.33,4.37,0,*7B
1496610339.83,22645,18.69,73868.8,5.01,4.33,4.33,0,*7E
1496610341.03,22646,18.69,73870.3,5.01,4.33,4.33,0,*7D
1496610342.24,22647,18.69,73874.3,5.01,4.33,4.33,0,*7C
1496610343.45,22648,18.69,73874.8,5.01,4.37,4.33,0,*77
1496610344.66,22649,18.69,73876.0,5.01,4.33,4.33,0,*72
1496610345.84,22650,18.69,73880.0,5.03,4.33,4.33,0,*78
1496610347.05,22651,18.69,73872.3,5.01,4.33,4.33,0,*7B
1496610348.28,22652,18.69,73874.0,5.01,4.33,4.31,0,*7A
1496610349.53,22653,18.69,73874.0,5.01,4.31,4.31,0,*79
1496610350.77,22654,18.69,73872.8,5.03,4.31,4.31,0,*7C
1496610352.03,22655,18.69,73874.5,5.01,4.31,4.31,0,*7F
1496610353.28,22656,18.69,73878.3,5.01,4.31,4.31,0,*7C
1496610354.54,22657,18.69,73874.8,5.01,4.31,4.31,0,*7D
1496610355.78,22658,18.69,73874.8,5.01,4.31,4.33,0,*70
1496610356.98,22659,18.75,73878.8,5.01,4.33,4.33,0,*73
1496610358.21,22660,18.69,73878.5,5.01,4.31,4.33,0,*7B
1496610359.4,22661,18.69,73876.3,5.03,4.33,4.33,0,*7A
1496610360.59,22662,18.69,73878.5,5.03,4.37,4.37,0,*79
1496610361.79,22663,18.75,73882.8,5.01,4.33,4.37,0,*7E
1496610363.0,22664,18.69,73878.3,5.01,4.37,4.33,0,*79
1496610364.22,22665,18.69,73876.5,5.01,4.37,4.33,0,*78
1496610365.42,22666,18.69,73876.0,5.01,4.33,4.33,0,*7F
1496610366.63,22667,18.69,73876.5,5.01,4.33,4.33,0,*7E
1496610367.84,22668,18.69,73878.0,5.01,4.33,4.33,0,*71
1496610369.05,22669,18.75,73882.0,5.01,4.37,4.37,0,*70
1496610370.23,22670,18.69,73880.3,5.03,4.37,4.37,0,*7A
1496610371.45,22671,18.69,73882.3,5.01,4.37,4.37,0,*79
1496610372.63,22672,18.69,73878.8,5.03,4.37,4.33,0,*7C
1496610373.84,22673,18.69,73880.8,5.01,4.33,4.33,0,*7B
1496610375.05,22674,18.69,73876.5,5.01,4.33,4.33,0,*7C
1496610376.25,22675,18.69,73874.0,5.01,4.33,4.33,0,*7D
1496610377.46,22676,18.75,73874.5,5.03,4.31,4.33,0,*7E
1496610378.72,22677,18.75,73868.3,5.01,4.31,4.31,0,*7F
1496610379.9,22678,18.69,73868.3,4.99,4.27,4.27,0,*70
1496610381.08,22679,18.69,73874.0,4.99,4.27,4.27,0,*71
1496610382.34,22680,18.69,73864.5,5.01,4.31,4.31,0,*77
1496610383.57,22681,18.69,73868.5,5.01,4.31,4.33,0,*74
1496610384.81,22682,18.69,73866.8,5.01,4.31,4.37,0,*73
1496610386.06,22683,18.69,73870.0,5.01,4.31,4.31,0,*74
1496610387.32,22684,18.69,73868.3,5.01,4.31,4.31,0,*73
1496610388.58,22685,18.69,73872.3,5.01,4.31,4.31,0,*72
1496610389.84,22686,18.69,73868.0,5.01,4.31,4.31,0,*71
1496610391.09,22687,18.69,73864.3,5.01,4.31,4.31,0,*70
1496610392.32,22688,18.69,73864.5,5.01,4.33,4.31,0,*7D
1496610393.58,22689,18.69,73864.3,5.01,4.31,4.31,0,*7E
1496610394.84,22690,18.69,73872.0,5.01,4.31,4.31,0,*76
1496610396.07,22691,18.69,73860.5,5.03,4.31,4.31,0,*75
1496610397.33,22692,18.69,73864.0,5.01,4.31,4.31,0,*74
1496610398.59,22693,18.69,73870.5,5.01,4.31,4.31,0,*75
1496610399.82,22694,18.69,73860.3,5.01,4.31,4.23,0,*71
1496610401.05,22695,18.69,73866.8,5.01,4.23,4.31,0,*70
1496610402.27,22696,18.75,73872.5,5.01,4.31,4.23,0,*73
1496610403.5,22697,18.69,73866.0,5.01,4.23,4.31,0,*72
1496610404.76,22698,18.69,73866.0,5.01,4.31,4.31,0,*7E
1496610406.02,22699,18.69,73866.3,5.01,4.31,4.31,0,*7F
1496610407.23,22700,18.75,73870.0,5.01,4.37,4.33,0,*7A
1496610408.44,22701,18.69,73870.5,5.01,4.33,4.33,0,*7F
1496610409.64,22702,18.69,73866.3,5.01,4.33,4.33,0,*7C
1496610410.85,22703,18.69,73868.8,5.01,4.33,4.33,0,*7D
1496610412.08,22704,18.69,73870.8,5.01,4.33,4.31,0,*78
1496610413.26,22705,18.69,73868.0,5.03,4.33,4.33,0,*79
1496610414.45,22706,18.69,73868.5,5.07,4.37,4.37,0,*7E
1496610415.66,22707,18.69,73866.8,5.01,4.33,4.33,0,*79
1496610416.86,22708,18.69,73864.5,5.01,4.33,4.33,0,*76
1496610418.09,22709,18.69,73872.3,5.01,4.33,4.31,0,*75
1496610419.32,22710,18.69,73866.8,5.01,4.33,4.31,0,*7D
1496610420.51,22711,18.69,73872.3,4.99,4.33,4.33,0,*7E
1496610421.75,22712,18.69,73864.8,4.99,4.31,4.31,0,*7D
1496610422.93,22713,18.69,73870.3,5.03,4.33,4.33,0,*7E
1496610424.12,22714,18.69,73872.3,5.03,4.33,4.33,0,*79
1496610425.33,22715,18.69,73874.8,5.01,4.37,4.33,0,*7E
1496610426.54,22716,18.75,73872.3,5.01,4.37,4.33,0,*7D
1496610427.74,22717,18.69,73866.0,5.01,4.33,4.37,0,*7C
1496610428.97,22718,18.69,73874.5,5.01,4.33,4.31,0,*75
1496610430.18,22719,18.75,73872.3,5.01,4.37,4.37,0,*76
1496610431.4,22720,18.69,73870.3,5.01,4.37,4.33,0,*78
1496610432.6,22721,18.69,73868.8,5.01,4.33,4.37,0,*79
1496610433.81,22722,18.69,73868.5,5.01,4.33,4.33,0,*7E
1496610434.99,22723,18.69,73870.8,5.03,4.33,4.33,0,*7D
1496610436.2,22724,18.69,73868.8,5.01,4.33,4.33,0,*78
1496610437.38,22725,18.69,73870.8,5.07,4.33,4.33,0,*7F
1496610438.59,22726,18.69,73866.5,5.01,4.37,4.37,0,*7A
1496610439.8,22727,18.69,73864.5,5.01,4.33,4.37,0,*7F
1496610441.01,22728,18.69,73868.3,5.01,4.37,4.37,0,*74
1496610442.2,22729,18.69,73868.0,5.03,4.37,4.45,0,*72
1496610443.38,22730,18.69,73868.5,5.03,4.33,4.45,0,*7E
1496610444.58,22731,18.75,73874.3,5.01,4.33,4.33,0,*7C
1496610445.79,22732,18.69,73866.3,5.01,4.33,4.33,0,*7F
1496610447.02,22733,18.69,73876.8,5.01,4.33,4.31,0,*7C
1496610448.23,22734,18.69,73870.0,5.03,4.33,4.31,0,*79
1496610449.41,22735,18.69,73872.5,5.03,4.33,4.33,0,*7A
1496610450.62,22736,18.69,73870.5,5.01,4.33,4.33,0,*7B
1496610451.8,22737,18.69,73874.3,5.03,4.33,4.33,0,*78
1496610453.01,22738,18.69,73872.3,5.01,4.33,4.33,0,*75
1496610454.22,22739,18.69,73868.8,5.01,4.33,4.33,0,*74
1496610455.42,22740,18.75,73874.3,5.01,4.33,4.33,0,*7A
1496610456.63,22741,18.69,73868.0,5.01,4.33,4.33,0,*7B
1496610457.86,22742,18.69,73870.0,5.01,4.31,4.33,0,*7A
1496610459.1,22743,18.69,73868.5,5.01,4.31,4.33,0,*7B
1496610460.3,22744,18.69,73874.8,5.01,4.33,4.33,0,*7E
1496610461.51,22745,18.69,73872.8,5.03,4.33,4.31,0,*7F
1496610462.72,22746,18.69,73868.8,5.01,4.37,4.33,0,*78
1496610463.93,22747,18.69,73868.0,5.01,4.33,4.37,0,*79
1496610465.14,22748,18.69,73870.3,5.01,4.37,4.33,0,*76
1496610466.34,22749,18.69,73872.8,5.01,4.33,4.33,0,*73
1496610467.53,22750,18.69,73874.8,5.03,4.33,4.33,0,*79
1496610468.74,22751,18.69,73864.3,5.01,4.33,4.33,0,*7A
1496610469.94,22752,18.69,73864.8,5.01,4.33,4.33,0,*79
1496610471.15,22753,18.69,73870.0,5.01,4.33,4.33,0,*78
1496610472.36,22754,18.75,73876.3,5.03,4.31,4.33,0,*7F
1496610473.59,22755,18.69,73872.8,5.01,4.31,4.33,0,*7C
1496610474.83,22756,18.69,73868.5,5.01,4.31,4.37,0,*7B
1496610476.06,22757,18.69,73868.8,5.01,4.31,4.33,0,*7E
1496610477.25,22758,18.69,73870.8,5.03,4.33,4.33,0,*71
1496610478.46,22759,18.69,73874.5,5.01,4.37,4.33,0,*76
1496610479.66,22760,18.69,73874.8,5.01,4.33,4.37,0,*7C
1496610480.87,22761,18.69,73872.5,5.01,4.33,4.33,0,*79
1496610482.05,22762,18.69,73872.0,5.03,4.33,4.33,0,*78
1496610483.26,22763,18.69,73868.0,5.01,4.33,4.33,0,*7B
1496610484.47,22764,18.69,73870.8,5.01,4.33,4.33,0,*7C
1496610485.65,22765,18.69,73872.3,5.03,4.33,4.33,0,*7F
1496610486.86,22766,18.69,73872.0,5.01,4.33,4.33,0,*7E
1496610488.06,22767,18.69,73866.0,5.01,4.33,4.33,0,*7F
1496610489.24,22768,18.69,73866.5,4.99,4.27,4.27,0,*70
1496610490.5,22769,18.69,73858.8,5.01,4.31,4.31,0,*71
1496610491.73,22770,18.69,73870.0,5.01,4.33,4.31,0,*7B
1496610492.94,22771,18.69,73868.5,5.01,4.33,4.33,0,*78
1496610494.12,22772,18.69,73864.3,5.03,4.33,4.33,0,*79
1496610495.33,22773,18.69,73868.5,5.01,4.33,4.33,0,*7A
1496610496.53,22774,18.69,73870.5,5.01,4.33,4.33,0,*7D
1496610497.74,22775,18.69,73868.5,5.03,4.31,4.33,0,*7C
1496610498.95,22776,18.69,73868.0,5.03,4.31,4.33,0,*7F
1496610500.14,22777,18.75,73872.8,5.03,4.33,4.33,0,*7C
1496610501.35,22778,18.69,73876.5,5.01,4.33,4.33,0,*71
1496610502.58,22779,18.69,73868.3,5.01,4.33,4.31,0,*72
1496610503.81,22780,18.69,73864.5,5.01,4.37,4.31,0,*70
1496610505.02,22781,18.75,73870.0,5.01,4.33,4.33,0,*77
1496610506.22,22782,18.69,73868.5,5.01,4.33,4.33,0,*74
1496610507.43,22783,18.69,73870.3,5.01,4.33,4.33,0,*75
1496610508.64,22784,18.69,73868.8,5.01,4.33,4.37,0,*76
1496610509.82,22785,18.69,73864.8,5.03,4.33,4.33,0,*71
1496610511.03,22786,18.75,73870.3,5.01,4.37,4.45,0,*75
1496610512.22,22787,18.69,73870.3,5.03,4.37,4.37,0,*73
1496610513.42,22788,18.69,73870.3,5.01,4.37,4.45,0,*7B
1496610514.63,22789,18.75,73868.8,5.01,4.33,4.33,0,*7F
1496610515.81,22790,18.69,73868.5,5.03,4.33,4.33,0,*75
1496610517.02,22791,18.69,73866.8,5.01,4.33,4.33,0,*76
1496610518.28,22792,18.69,73866.0,5.01,4.31,4.31,0,*75
1496610519.53,22793,18.69,73870.5,5.01,4.31,4.31,0,*74
1496610520.79,22794,18.69,73870.8,5.01,4.31,4.31,0,*73
1496610522.05,22795,18.69,73870.8,5.01,4.31,4.31,0,*72
1496610523.28,22796,18.69,73868.8,5.01,4.33,4.31,0,*73
1496610524.51,22797,18.69,73868.0,5.01,4.33,4.31,0,*72
1496610525.74,22798,18.69,73866.3,5.01,4.33,4.31,0,*7D
1496610527.0,22799,18.69,73868.0,5.01,4.31,4.31,0,*7E
1496610528.23,22800,18.69,73870.5,5.03,4.31,4.31,0,*73
1496610529.49,22801,18.75,73870.0,5.01,4.31,4.31,0,*70